Miscellaneous Local Product
Issued by NWS North Platte, NE

Home | Current Version | Previous Version | Text Only | Print | Product List | Glossary On
Versions: 1 2 3 4 5 6 7 8 9 10 11 12 13 14 15 16 17 18 19 20 21 22 23 24 25 26 27 28 29 30 31 32 33 34 35 36 37 38 39 40 41 42 43 44 45 46 47 48 49 50
000
AXUS43 KLBF 200410
MISLBF


WESTERN AND NORTH CENTRAL NEBRASKA HOURLY WEATHER ROUNDUP
NATIONAL WEATHER SERVICE NORTH PLATTE NE
1100 PM CDT SUN OCT 19 2014

***STATIONS NOT REPORTING VARIABLES SUCH AS SKY/WEATHER OR
PRESSURE ARE PROVIDED BY THE NEBRASKA DEPARTMENT OF
ROADS...RAWS...AND APRS NETWORKS...AND ARE NOT UNDER
NATIONAL WEATHER SERVICE QUALITY CONTROL***

...OBSERVATIONS IN AND NEAR THE EASTERN PANHANDLE OF NEBRASKA...

CITY           SKY/WX    TMP DP  RH WIND       PRES   REMARKS
WHITECLAY        N/A     38  34  85 SE5         N/A  WCI  34
RUSHVILLE        N/A     41  34  76 W6          N/A
LISCO            N/A     46  34  61 CALM        N/A
BIG SPRINGS      N/A     45  35  69 CALM        N/A
LEWELLEN         N/A     42  35  76 CALM        N/A
$$

...OBSERVATIONS IN NORTH CENTRAL NEBRASKA...

CITY           SKY/WX    TMP DP  RH WIND       PRES   REMARKS
THEDFORD       FAIR      53  38  55 CALM      30.07S
AINSWORTH      FAIR      49  37  65 W3        30.05R
O`NEILL        FAIR      53  42  65 W5        30.01R
BROWNLEE         N/A     59  34  39 N5          N/A
SPRINGVIEW       N/A     47  39  73 CALM        N/A
BREWSTER         N/A     46  38  74 NW5         N/A
ROSE             N/A     62  43  50 W3          N/A
NEWPORT          N/A     44  38  79 W6          N/A
SARGENT          N/A     48  40  75 CALM        N/A
COMSTOCK         N/A     55  44  66 W3          N/A
CHAMBERS         N/A     46  35  66 CALM        N/A
$$

...OBSERVATIONS IN SOUTHWEST NEBRASKA AND FAR NORTHEAST COLORADO...

CITY           SKY/WX    TMP DP  RH WIND       PRES   REMARKS
WRAY           FAIR      56  37  49 CALM      30.09S
HOLYOKE        FAIR      46  37  71 CALM      30.10R
OGALLALA       FAIR      47  36  66 SW3       30.07S
LEXINGTON      FAIR      48  45  88 N3        30.03S
PAXTON           N/A     45  34  65 CALM        N/A
SUTHERLAND       N/A     42  35  78 CALM        N/A
BRADY            N/A     47  39  74 CALM        N/A
GOTHENBURG       N/A     53  44  71 CALM        N/A
CALLAWAY         N/A     43  39  85 NW3         N/A
$$

...SOME WEATHER OBSERVATIONS FROM AROUND THE REGION...

CITY           SKY/WX    TMP DP  RH WIND       PRES   REMARKS
HAYS           FAIR      55  46  71 E6        30.01F
LIBERAL        FAIR      61  46  59 CALM      30.04R
$$



USA.gov is the U.S. government's official web portal to all federal, state and local government web resources and services.